2025-284A

Last updated on Mon Jan 05 2026 00:02:05 GMT+0000 (Coordinated Universal Time)

1 66913U 25284A 26004.60836769 .00005981 00000+0 57498-3 0 9991 2 66913 80.4017 101.4177 0019518 295.3808 64.5385 14.92787468 4569
UTC large
Height (km)
Speed (km/s)
/
Latitude / Longitude
Inclination (degrees)
Orbital Period (minutes)
Azimuth
Elevation
Range (km)
Doppler Factor

Next 0 passes for location: London (51.5072 / 0.1276)

Sorry there are no passes over London.